Theta_e
286 286 286 286 286 287 288 288 289 290 291 292 293 295 295 297 297 297 297 295 295 295 295 294 294 294 294 295 296 297 298 299 298 299 301 300 298 298 297 298 297 298 298
283 283 282 283 284 284 284 285 286 286 288 288 289 290 292 292 292 291 290 289 288 288 289 289 289 292 291 292 292 292 292 292 293 292 295 293 293 294 295 293 294 295 295
280 280 280 280 280 281 281 282 282 282 284 285 286 286 287 288 288 288 287 287 286 286 286 286 287 288 288 289 289 289 291 293 294 292 292 294 294 294 290 290 290 290 292
278 278 278 278 279 279 280 280 280 281 281 282 282 282 284 286 286 286 285 285 285 285 286 286 286 286 286 287 288 288 289 288 288 288 288 288 288 287 286 284 285 284 286
276 276 276 278 278 278 278 278 279 279 280 280 280 281 282 285 286 284 283 284 283 284 285 285 285 283 285 286 287 287 288 288 287 286 285 285 284 281 282 283 283 284 284
275 275 276 277 277 277 277 277 277 278 278 279 279 280 281 283 285 284 283 282 283 283 282 282 282 282 283 285 286 287 287 285 285 285 284 283 284 285 285 283 282 281 278
274 275 275 276 276 276 276 276 276 276 277 277 278 278 279 280 283 283 282 279 280 280 280 280 281 281 281 282 284 283 282 284 284 282 281 281 281 283 283 281 281 281 281
273 273 273 275 274 275 274 274 275 276 276 276 277 277 277 278 281 282 281 279 279 279 279 279 278 279 280 280 280 280 280 281 281 281 281 281 283 283 284 283 282 282 282
271 271 271 272 272 271 271 272 273 274 274 274 276 274 275 275 278 279 278 277 277 277 278 278 278 277 279 281 279 278 278 279 282 283 284 285 285 285 284 281 278 277 276
269 269 269 270 270 269 270 270 271 272 272 272 273 273 274 272 275 277 277 275 274 275 275 276 277 276 279 280 278 277 275 276 277 278 278 279 281 280 281 280 278 276 276
267 267 267 268 269 269 269 269 270 270 270 270 270 271 271 272 272 276 277 275 275 274 274 274 274 277 279 279 278 274 274 276 274 273 273 274 276 276 277 279 280 279 277
266 266 266 266 267 268 267 267 268 268 267 268 268 268 269 271 272 274 275 276 276 273 273 273 274 278 277 277 275 275 276 275 269 269 269 269 271 272 273 275 275 276 277
264 263 264 264 265 266 265 265 265 266 265 266 266 266 267 269 269 272 273 275 275 273 274 275 276 276 275 273 273 274 271 268 267 266 266 267 269 270 271 271 274 273 273
260 261 263 262 262 263 264 264 264 264 264 265 265 265 266 267 267 269 272 273 273 273 274 273 273 272 271 271 268 269 268 267 266 265 266 267 267 266 266 268 267 268 268
261 261 261 261 260 261 262 263 264 265 267 265 262 266 264 264 267 273 273 272 272 273 270 262 264 265 264 264 264 264 265 265 264 264 264 263 264 264 264 265 265 265 263
260 260 259 260 259 260 260 260 264 266 268 269 270 270 269 270 272 273 273 274 275 275 261 256 261 262 262 262 262 262 263 262 263 263 263 262 262 262 262 263 263 262 262
258 259 258 259 259 258 258 258 257 260 264 265 267 268 268 270 271 271 272 273 273 269 253 258 259 260 260 261 261 261 261 262 262 262 261 261 261 261 261 260 261 261 260
256 257 257 257 257 257 257 256 256 254 254 255 260 263 266 267 268 269 271 268 258 259 251 255 257 258 259 260 260 260 261 261 261 261 261 260 260 260 259 259 259 258 258
256 257 257 256 255 255 254 254 254 253 253 253 254 257 260 263 265 267 267 253 254 255 255 254 257 258 258 259 259 260 260 260 260 260 260 259 259 259 258 258 258 258 258
254 255 255 254 253 253 253 253 253 252 252 252 253 253 254 254 258 257 255 250 249 253 255 255 256 257 258 258 259 260 259 259 259 259 259 260 260 259 258 258 258 257 257
253 252 253 252 251 251 251 251 252 251 251 251 253 254 263 261 257 255 255 255 254 255 255 256 256 257 258 259 259 260 260 260 260 260 260 260 260 259 259 259 258 258 257
251 250 249 248 251 251 251 251 251 251 251 251 252 253 261 255 253 253 253 254 255 255 256 256 256 257 258 259 259 260 260 260 260 261 261 261 261 260 260 259 258 258 257
250 250 250 250 250 251 251 250 250 250 251 251 252 252 252 252 252 253 253 254 255 255 256 256 256 257 258 259 261 261 261 261 262 263 262 262 262 261 260 259 258 258 257
248 249 250 250 249 250 250 251 251 251 251 251 251 251 252 252 252 253 253 254 254 255 255 256 256 256 257 258 260 261 263 263 264 264 264 263 262 262 261 260 259 259 258
247 248 249 250 249 250 250 251 251 250 251 251 252 252 252 252 252 252 253 253 254 254 254 255 256 256 257 258 259 260 261 262 263 263 263 263 262 262 262 261 260 259 259
249 250 250 251 250 250 250 251 251 252 252 252 252 252 252 252 252 252 252 253 253 254 254 255 255 255 256 258 259 261 262 265 265 266 268 268 267 266 263 262 261 260 259
Wind_Speed
12 11 12 11 11 10 10 10 9 9 9 9 8 8 9 9 9 7 7 8 7 6 6 6 5 5 4 3 3 3 3 3 7 5 2 4 4 6 7 8 6 6 6
10 11 12 11 11 11 10 10 9 9 8 8 7 8 8 8 8 8 7 6 7 7 7 7 6 5 5 5 3 4 3 2 3 11 6 3 4 3 5 8 7 7 7
11 11 11 11 10 10 10 9 9 9 9 9 9 9 8 8 9 8 7 6 6 6 6 5 6 6 6 4 4 4 4 4 6 8 10 6 8 7 4 5 5 5 5
9 10 10 10 9 8 8 9 9 8 8 9 9 8 7 8 8 8 7 6 5 5 5 5 5 6 6 6 5 4 4 4 4 7 8 8 4 2 4 6 8 3 8
9 9 9 8 8 8 8 8 8 8 8 7 8 8 7 7 8 10 9 7 6 6 5 6 6 7 13 13 7 7 6 6 7 7 8 7 6 3 4 3 9 10 10
9 9 8 8 9 9 9 9 8 9 7 8 8 7 8 7 16 17 13 8 8 8 8 8 8 8 11 15 15 16 13 9 8 6 9 11 10 9 7 6 8 9 7
8 9 9 8 9 9 8 8 8 7 8 8 9 9 8 8 17 18 16 7 7 8 8 8 8 7 8 9 10 12 10 14 14 11 11 9 12 9 10 12 11 11 12
9 9 9 9 9 8 8 8 8 7 8 7 7 9 7 8 17 18 17 8 7 7 8 7 8 8 9 12 12 10 9 7 6 7 9 10 10 12 11 11 14 16 14
8 8 8 8 8 8 9 9 8 7 7 7 8 9 9 9 17 18 14 8 8 9 8 8 8 9 17 20 12 12 11 10 11 19 21 23 21 20 17 10 9 9 12
8 8 7 7 7 8 8 9 8 8 9 7 8 8 9 10 16 17 16 7 8 7 7 8 12 12 19 21 13 12 12 12 14 14 12 14 15 12 18 11 9 10 9
5 6 6 7 6 7 7 8 8 8 8 8 8 8 9 10 11 17 18 8 7 7 7 7 7 18 21 21 22 11 15 18 16 12 11 10 10 9 9 8 8 9 11
5 5 6 6 6 6 7 6 6 6 6 5 6 6 6 8 13 14 17 16 16 8 8 7 8 21 21 21 18 22 24 20 9 8 9 9 9 8 9 10 13 14 12
5 5 4 5 5 5 5 6 4 5 4 5 5 5 5 6 6 14 15 17 16 10 8 13 19 20 20 14 17 21 15 7 8 9 9 9 8 9 12 13 8 12 13
4 5 4 4 5 5 4 4 3 3 3 4 4 5 5 5 5 6 6 6 10 9 12 6 12 15 16 15 8 10 7 7 8 10 10 10 9 9 9 8 9 10 11
3 3 4 3 4 3 4 2 4 4 6 4 2 3 4 6 6 15 13 8 8 11 7 3 6 7 7 7 7 7 7 7 8 9 9 10 10 10 10 8 9 9 10
3 3 2 3 3 4 5 5 9 10 14 14 11 9 4 13 17 18 19 20 19 18 5 3 6 7 7 8 8 9 8 9 8 9 9 10 10 10 10 9 9 9 10
3 4 4 4 4 5 5 5 7 8 12 11 13 13 15 15 16 18 20 19 15 13 1 5 6 7 8 9 9 9 10 9 10 9 9 10 10 10 11 10 9 9 10
2 3 3 2 4 4 5 5 4 5 7 6 9 14 13 15 18 19 17 12 7 6 2 5 7 8 8 9 9 9 10 10 10 10 10 10 10 10 10 10 10 10 10
2 2 2 3 4 5 4 4 5 5 6 7 6 6 7 15 17 13 13 2 5 6 5 5 7 8 8 9 9 10 11 11 11 11 11 10 10 9 11 10 10 13 13
2 4 3 2 4 4 4 4 4 5 6 7 7 6 6 5 7 6 3 2 3 5 6 6 8 8 9 9 10 10 11 12 11 11 11 10 10 10 11 11 10 10 10
1 2 5 4 4 4 3 4 5 5 6 6 8 7 18 10 8 8 8 7 6 6 7 7 8 9 9 10 10 11 12 12 12 12 12 12 11 11 11 11 11 11 10
2 3 3 4 4 4 5 5 5 5 6 7 8 8 17 6 6 7 8 8 8 7 7 8 9 10 10 11 11 12 13 14 14 13 13 12 12 12 11 11 11 11 10
5 4 4 4 5 5 5 4 5 6 7 7 7 8 7 6 7 8 8 8 8 8 8 8 10 11 10 11 11 12 14 15 15 14 15 14 13 12 11 11 12 12 11
3 4 5 4 3 5 5 6 6 8 8 7 7 7 7 8 8 9 9 8 8 9 9 9 10 14 14 14 13 13 14 15 14 15 20 15 15 15 13 13 13 15 13
3 4 5 6 5 5 6 6 7 6 6 7 7 7 8 8 8 9 8 8 8 9 11 10 11 14 17 21 22 26 26 28 23 23 16 18 19 21 17 14 15 15 16
4 6 7 5 5 6 6 7 7 7 7 7 7 7 8 8 9 9 9 9 9 9 12 11 14 20 22 19 23 26 27 29 26 28 21 18 18 16 15 18 21 15 16
Wind_Direction
46 48 50 44 42 44 44 37 34 34 26 29 23 28 33 32 29 32 33 27 31 24 19 10 7 355 351 342 342 338 332 349 284 305 336 342 322 341 331 332 331 323 312
43 46 46 43 41 44 40 32 28 33 27 28 26 37 39 40 36 38 35 26 25 19 6 5 356 351 347 347 352 348 328 313 282 292 294 299 310 284 307 312 318 315 309
43 45 44 42 39 37 34 29 27 27 26 25 29 30 29 35 35 31 30 24 21 21 7 1 348 356 354 356 351 339 314 302 292 290 292 301 303 310 303 294 281 283 294
44 45 42 34 32 31 32 31 30 24 27 26 26 24 21 34 32 25 19 15 10 8 6 9 3 5 351 340 332 330 317 316 309 293 292 299 311 327 313 315 315 307 304
45 44 38 30 30 29 31 27 26 29 28 26 27 25 18 33 32 26 13 6 8 9 13 16 11 2 5 359 346 340 329 314 305 303 298 300 307 320 305 315 305 312 303
49 43 30 26 33 28 27 25 22 21 24 33 32 29 29 35 28 26 24 16 14 18 17 11 6 11 2 358 352 351 350 340 322 306 296 296 303 309 314 315 310 316 316
53 47 37 32 38 30 30 29 25 18 25 29 38 27 30 20 20 16 27 16 19 23 15 6 10 6 351 346 344 342 343 336 325 316 307 307 309 319 309 306 304 294 282
44 38 29 24 31 22 23 23 21 18 27 24 38 32 33 22 13 10 20 11 10 19 8 6 1 355 350 346 338 335 328 318 308 307 300 298 294 301 295 297 298 297 286
39 36 28 20 27 21 21 18 15 15 25 22 36 25 28 26 12 10 13 10 9 6 8 8 355 356 339 336 337 326 324 319 319 313 308 303 302 310 312 308 295 294 298
19 19 19 18 31 26 19 20 14 15 21 18 22 25 25 16 5 8 13 2 4 6 356 355 356 339 336 337 335 340 332 327 320 316 314 308 304 298 295 279 281 274 283
14 20 18 17 28 28 22 20 19 17 22 19 21 17 14 16 1 6 7 7 355 359 345 354 337 331 340 340 341 339 322 324 328 321 309 306 308 307 299 285 279 276 275
5 30 23 19 17 25 25 22 23 18 18 12 11 8 4 4 358 358 357 354 351 343 346 328 314 335 336 338 333 322 323 331 320 316 310 310 310 312 306 307 296 285 274
2 7 22 19 19 17 32 22 15 6 9 3 2 351 345 353 345 338 331 343 343 340 327 319 332 333 331 323 314 317 325 315 308 309 305 305 303 308 306 298 302 312 300
355 352 359 9 7 16 22 11 346 337 340 345 344 339 330 331 326 310 315 328 320 319 307 333 332 331 322 313 312 310 303 301 302 298 298 300 304 304 300 305 306 306 301
11 353 351 354 355 7 9 337 335 319 313 322 279 294 316 321 309 317 327 322 315 308 354 18 336 329 319 318 312 306 299 297 293 294 297 300 298 299 298 304 302 302 295
344 335 355 329 341 10 5 324 341 340 339 332 328 319 308 308 308 320 323 320 318 329 41 343 313 308 305 308 307 304 300 296 292 292 291 291 292 294 296 297 295 291 292
348 337 348 348 345 11 344 327 333 330 334 325 324 318 314 304 319 319 317 313 342 343 340 301 297 300 300 301 298 295 295 293 294 285 284 285 285 285 293 291 290 290 290
298 295 298 326 359 327 307 314 300 298 308 306 312 312 305 316 315 312 311 346 337 329 225 270 289 291 289 289 290 289 288 288 283 281 280 279 278 280 283 280 281 281 283
279 289 337 359 301 282 290 282 279 287 290 293 306 300 284 308 310 311 326 149 269 286 285 270 271 275 279 281 282 283 280 280 280 281 278 275 273 273 269 268 269 272 275
251 291 307 290 269 270 268 271 287 289 292 290 293 292 311 305 323 326 293 248 248 258 268 268 280 280 280 281 284 283 282 281 280 277 273 270 268 262 263 266 265 268 268
277 270 251 256 253 256 270 270 269 269 273 288 291 299 308 316 311 303 302 295 280 279 282 281 285 283 283 283 283 283 281 281 278 276 274 272 269 265 260 259 261 260 261
211 240 233 236 266 263 251 251 261 268 272 274 285 289 305 305 283 281 282 281 280 273 274 276 279 278 279 281 283 282 282 281 280 277 273 270 268 264 260 259 257 255 255
216 223 237 242 242 255 266 254 260 258 263 265 272 284 290 282 278 276 276 277 279 280 278 274 276 280 278 278 278 278 279 278 278 280 278 275 270 264 258 255 253 254 251
210 230 246 249 250 251 253 264 253 249 256 267 269 267 268 270 272 275 275 278 279 279 278 276 274 276 284 284 284 282 278 278 278 278 280 276 272 268 256 252 249 247 247
219 243 249 252 246 255 263 258 260 256 257 258 269 267 272 272 274 276 279 281 282 283 283 283 280 283 284 288 286 286 282 285 284 281 279 270 263 260 254 247 243 243 240
231 237 244 245 251 250 253 268 272 272 272 270 265 264 268 274 277 280 283 284 286 285 287 286 283 283 286 288 288 287 289 290 291 289 283 277 268 257 241 240 243 236 234